FW1212 Weather Reports


time (UTC)temp
C
wind
direction
speed
KPH
gust
KPH
rain 1hr
cm
rain 24hr
cm
rain mn
cm
humidity
%
barometer
mb
20260508073040 14 96 4.8 16.1 0.00 0.00 0.00 75 1013.2
20260508071540 13 105 3.2 14.5 0.00 0.00 0.00 77 1013.1
20260508070039 13 69 4.8 16.1 0.00 0.00 0.00 77 1013.0
20260508064548 12 51 6.4 16.1 0.00 0.00 0.00 78 1013.0
20260508063036 12 101 4.8 19.3 0.00 0.00 0.00 79 1013.0
20260508061537 12 104 11.3 22.5 0.00 0.00 0.00 79 1012.8
20260508060035 12 72 11.3 24.1 0.00 0.00 0.00 79 1012.9
20260508054535 11 117 6.4 19.3 0.00 0.00 0.00 80 1012.9
20260508053035 11 124 8.0 19.3 0.00 0.00 0.00 81 1012.9
20260508051533 10 98 3.2 16.1 0.00 0.00 0.00 82 1012.9
20260508050032 10 92 6.4 17.7 0.00 0.00 0.00 82 1012.8
20260508044532 10 150 4.8 16.1 0.00 0.00 0.00 82 1012.8
20260508043031 10 33 8.0 14.5 0.00 0.00 0.00 83 1012.7
20260508041530 10 38 11.3 16.1 0.00 0.00 0.00 82 1012.7
20260508040037 10 50 6.4 16.1 0.00 0.00 0.00 82 1012.6
20260508034529 10 110 4.8 12.9 0.00 0.00 0.00 82 1012.4
20260508033027 9 63 1.6 8.0 0.00 0.00 0.00 82 1012.5
20260508031530 9 75 3.2 11.3 0.00 0.00 0.00 82 1012.4
20260508030024 10 120 0.0 4.8 0.00 0.00 0.00 81 1012.4
20260508023027 10 67 6.4 11.3 0.00 0.00 0.00 81 1012.1
20260508021519 10 44 8.0 12.9 0.00 0.00 0.00 81 1012.1
20260508020017 10 68 4.8 9.7 0.00 0.00 0.00 81 1012.1
20260508014532 10 57 6.4 11.3 0.00 0.00 0.00 81 1012.1
20260508013014 10 56 8.0 12.9 0.00 0.00 0.00 80 1012.2
20260508011509 10 19 4.8 12.9 0.00 0.00 0.00 80 1012.4
20260508010009 10 52 8.0 14.5 0.00 0.00 0.00 80 1012.4
20260508004513 10 63 4.8 11.3 0.00 0.00 0.00 80 1012.4
20260508003016 11 114 1.6 9.7 0.00 0.00 0.00 80 1012.5
20260508001502 11 65 4.8 8.0 0.00 0.00 0.00 80 1012.6
20260508000000 11 83 1.6 9.7 0.00 0.00 0.00 79 1012.4
20260507234558 11 153 0.0 9.7 0.00 0.00 0.00 79 1012.5
20260507233055 11 352 0.0 4.8 0.00 0.00 0.00 79 1012.6
20260507231552 12 38 0.0 3.2 0.00 0.00 0.00 78 1012.8
20260507230051 12 121 1.6 8.0 0.00 0.00 0.00 78 1013.0
20260507224602 12 350 0.0 11.3 0.00 0.00 0.00 78 1012.8
20260507223054 12 56 3.2 11.3 0.00 0.00 0.00 77 1012.8
20260507221544 13 60 1.6 8.0 0.00 0.00 0.00 76 1012.9
20260507220042 13 1 4.8 11.3 0.00 0.00 0.00 76 1013.0
20260507214539 13 75 6.4 14.5 0.00 0.00 0.00 75 1012.9
20260507213040 14 84 6.4 12.9 0.00 0.00 0.00 74 1012.9
20260507211546 14 82 4.8 17.7 0.00 0.00 0.00 74 1012.9
20260507210035 15 98 8.0 16.1 0.00 0.00 0.00 73 1012.9
20260507204531 15 55 6.4 16.1 0.00 0.00 0.00 71 1012.8
20260507203030 15 77 6.4 16.1 0.00 0.00 0.00 70 1012.7
20260507201531 15 62 6.4 16.1 0.00 0.00 0.00 68 1012.7
20260507200028 15 79 6.4 12.9 0.00 0.00 0.00 66 1012.6
20260507194530 16 86 4.8 9.7 0.00 0.00 0.00 62 1012.6
20260507193033 16 70 6.4 16.1 0.00 0.00 0.00 59 1012.5
20260507191527 16 62 4.8 14.5 0.00 0.00 0.00 57 1012.5
20260507190031 17 100 6.4 11.3 0.00 0.00 0.00 56 1012.4
20260507184526 17 91 4.8 14.5 0.00 0.00 0.00 55 1012.5
20260507183025 17 60 4.8 12.9 0.00 0.00 0.00 54 1012.4
20260507181524 18 83 4.8 9.7 0.00 0.00 0.00 52 1012.2
20260507180023 18 56 6.4 14.5 0.00 0.00 0.00 50 1012.0
20260507174523 18 97 4.8 14.5 0.00 0.00 0.00 49 1012.0
20260507173024 19 40 4.8 14.5 0.00 0.00 0.00 48 1012.0
20260507171521 20 96 4.8 19.3 0.00 0.00 0.00 47 1011.9
20260507170022 20 71 8.0 17.7 0.00 0.00 0.00 44 1011.8
20260507164521 21 125 6.4 17.7 0.00 0.00 0.00 43 1011.6
20260507163024 21 75 8.0 24.1 0.00 0.00 0.00 41 1011.6
20260507161519 21 88 9.7 17.7 0.00 0.00 0.00 40 1011.5
20260507160019 22 30 11.3 22.5 0.00 0.00 0.00 38 1011.5
20260507154518 22 71 14.5 27.4 0.00 0.00 0.00 35 1011.3
20260507153020 23 82 11.3 30.6 0.00 0.00 0.00 36 1011.3
20260507151519 23 63 11.3 30.6 0.00 0.00 0.00 37 1011.3
20260507150016 23 121 11.3 27.4 0.00 0.00 0.00 37 1011.4
20260507144515 23 69 9.7 22.5 0.00 0.00 0.00 37 1011.4
20260507143015 23 58 12.9 24.1 0.00 0.00 0.00 36 1011.5
20260507141513 23 135 8.0 27.4 0.00 0.00 0.00 35 1011.6
20260507140023 24 56 16.1 27.4 0.00 0.00 0.00 33 1011.7
20260507134512 24 88 9.7 27.4 0.00 0.00 0.00 33 1011.7
20260507133011 24 32 14.5 25.7 0.00 0.00 0.00 33 1011.6
20260507131510 24 65 12.9 24.1 0.00 0.00 0.00 34 1011.8
20260507130008 24 93 11.3 25.7 0.00 0.00 0.00 32 1011.8
20260507124513 24 123 12.9 27.4 0.00 0.00 0.00 32 1011.9
20260507123006 25 94 8.0 27.4 0.00 0.00 0.00 33 1012.0
20260507121508 25 40 11.3 22.5 0.00 0.00 0.00 33 1012.1
20260507120004 24 42 17.7 27.4 0.00 0.00 0.00 31 1012.4
20260507114501 25 100 14.5 30.6 0.00 0.00 0.00 32 1012.4
20260507113103 24 37 11.3 29.0 0.00 0.00 0.00 34 1012.5
20260507111559 24 56 14.5 27.4 0.00 0.00 0.00 33 1012.5
20260507110100 24 137 14.5 27.4 0.00 0.00 0.00 34 1012.6
20260507104557 23 108 14.5 32.2 0.00 0.00 0.00 34 1012.5
20260507103056 24 102 19.3 29.0 0.00 0.00 0.00 33 1012.6
20260507101605 23 63 12.9 27.4 0.00 0.00 0.00 34 1012.7
20260507100055 24 67 14.5 30.6 0.00 0.00 0.00 33 1012.9
20260507094559 23 35 12.9 29.0 0.00 0.00 0.00 35 1012.9
20260507093050 23 54 11.3 22.5 0.00 0.00 0.00 35 1013.0
20260507091559 23 88 14.5 25.7 0.00 0.00 0.00 35 1013.0
20260507090107 22 100 11.3 19.3 0.00 0.00 0.00 38 1013.0
20260507084545 23 80 16.1 25.7 0.00 0.00 0.00 37 1013.0
20260507083045 22 87 9.7 24.1 0.00 0.00 0.00 37 1013.1
20260507081551 22 113 11.3 24.1 0.00 0.00 0.00 38 1013.1
20260507080039 22 58 12.9 25.7 0.00 0.00 0.00 40 1013.1
20260507074540 21 101 9.7 19.3 0.00 0.00 0.00 42 1013.1